Regional Weather Roundup
Issued by NWS

Home | Current Version | Previous Version | Text Only | Print | Product List | Glossary Off
Versions: 1 2 3 4 5 6 7 8 9 10 11 12 13 14 15 16 17 18 19 20 21 22 23 24 25 26 27

000
ASUS45 KPSR 261610
RWRAZ

ARIZONA HOURLY REGIONAL WEATHER ROUNDUP
NATIONAL WEATHER SERVICE PHOENIX AZ
900 AM MST SUN FEB 26 2017

NOTE: FAIR INDICATES FEW OR NO CLOUDS BELOW 12,000 FEET WITH NO
SIGNIFICANT WEATHER AND/OR OBSTRUCTIONS TO VISIBILITY.

AZZ001>003-036-261700-
NORTHWEST ARIZONA

CITY           SKY/WX    TMP DP  RH WIND       PRES   REMARKS
BULLHEAD CITY  CLOUDY    52  27  37 N7        29.95R
KINGMAN        CLOUDY    45   9  23 CALM      29.92R
$$

AZZ004>008-015-016-018-261700-
NORTH CENTRAL ARIZONA

CITY           SKY/WX    TMP DP  RH WIND       PRES   REMARKS
GRAND CANYON   CLOUDY    31  21  66 CALM      29.92R
WILLIAMS       CLOUDY    34  18  51 SE6       29.91S WCI  29
PRESCOTT       CLOUDY    39  22  50 SE3       29.93R
FLAGSTAFF      CLOUDY    29  19  66 CALM      29.93R
PAYSON         CLOUDY    41  21  45 E5        29.95S
PAGE           SUNNY     37  15  40 N5        29.95R WCI  33
$$

AZZ009>014-017-261700-
NORTHEAST ARIZONA

CITY           SKY/WX    TMP DP  RH WIND       PRES   REMARKS
WINSLOW        CLOUDY    40  22  48 SE9       29.95R WCI  34
SAINT JOHNS    CLOUDY    36  25  64 NE3       29.96R
WINDOW ROCK    CLOUDY    31  23  72 SW3       29.94R
SHOW LOW       CLOUDY    34  10  37 CALM      29.96R
$$

AZZ023-261700-
GREATER PHOENIX AREA

CITY           SKY/WX    TMP DP  RH WIND       PRES   REMARKS
PHOENIX        MOSUNNY   57  31  37 E7        29.90R
BUCKEYE        MOSUNNY   55  37  50 CALM      29.91R
GLENDALE       PTSUNNY   57  36  44 CALM      29.92R
LUKE AFB       SUNNY     56  38  49 NE5       29.90R
DEER VALLEY    MOSUNNY   55  33  43 NE5       29.90R
SCOTTSDALE     MOSUNNY   56  30  37 CALM      29.91R
MESA-FALCON    CLOUDY   N/A N/A N/A N10       29.88R
MESA-GATEWAY   PTSUNNY   54  37  54 CALM      29.92R
CHANDLER       PTSUNNY   54  37  54 CALM      29.91
$$

AZZ027-028-261700-
SOUTHWEST MARICOPA COUNTY AND PINAL COUNTY

CITY           SKY/WX    TMP DP  RH WIND       PRES   REMARKS
CASA GRANDE    NOT AVBL
$$

AZZ503-504-507>509-261700-
SOUTHEAST ARIZONA

CITY           SKY/WX    TMP DP  RH WIND       PRES   REMARKS
TUCSON         CLOUDY    58  18  21 S8        29.92F
DAVIS-MONTHAN  MOSUNNY   57  20  23 SE6       29.91F
RYAN FIELD     MOSUNNY   55  21  26 E5        29.93R
NOGALES        PTSUNNY   55  15  20 VRB5      29.97R
SIERRA VISTA   CLOUDY    54  21  27 SW13G26   29.96R
DOUGLAS        CLOUDY    53  13  20 SE8       29.97R
SAFFORD        PTSUNNY   50  17  27 CALM      29.92R
$$

AZZ020-021-025-026-031-261700-
SOUTHWEST ARIZONA

CITY           SKY/WX    TMP DP  RH WIND       PRES   REMARKS
YUMA           PTSUNNY   58  38  47 NW10      29.95R
$$

CAZ031-033-041-043-047-048-061-261700-
SOUTHERN CALIFORNIA

CITY           SKY/WX    TMP DP  RH WIND       PRES   REMARKS
DOWNTOWN L.A.  CLOUDY    51  44  77 VRB3      30.00R
L.A. AIRPORT   LGT RAIN  49  46  90 E9        30.00S
SAN DIEGO      LGT RAIN  53  47  79 E5        30.06R
BURBANK        LGT RAIN  47  42  83 SE5       29.99R
ONTARIO        LGT RAIN  47  43  86 NE5       30.00R
RIVERSIDE      CLOUDY    47  44  90 E5        30.01S
PALM SPRINGS   MOSUNNY   56  43  61 NW17G24   29.96R
EL CENTRO NAS  MOSUNNY   59  36  42 W7        29.98R
IMPERIAL         N/A     58  40  51 MISG      29.96R
BLYTHE         CLOUDY    53  38  56 NW5       29.94R
NEEDLES        LGT RAIN  54  32  43 E3        29.95R
$$

NVZ020-UTZ003-261700-
SOUTHERN NEVADA-UTAH

CITY           SKY/WX    TMP DP  RH WIND       PRES   REMARKS
LAS VEGAS      MOSUNNY   46  22  38 CALM      29.94R
SALT LAKE CITY MOSUNNY   26  17  68 S12       29.95R WCI  16
$$

NMZ009-TXZ055-261700-
NEW MEXICO-WEST TEXAS

CITY           SKY/WX    TMP DP  RH WIND       PRES   REMARKS
ALBUQUERQUE    CLOUDY    36  22  56 CALM      29.98R
EL PASO        PTSUNNY   50   9  19 CALM      29.97R
$$


........................KEY........................
SKY/WX - SKY CONDITION/WEATHER
TMP    - TEMPERATURE IN FAHRENHEIT
DP     - DEW POINT IN FAHRENHEIT
RH     - RELATIVE HUMIDITY IN PERCENT
WIND   - DIRECTION AND SPEED IN MILES PER HOUR (MPH)
VRB    - VARIABLE WIND DIRECTION
PRES   - MEAN SEA LEVEL PRESSURE IN INCHES OF MERCURY
         F - FALLING PRESSURE   R - RISING PRESSURE
         S - STEADY PRESSURE
VSB    - VISIBILITY IN MILES
HX     - HEAT INDEX IN FAHRENHEIT
WCI    - WIND CHILL INDEX IN FAHRENHEIT
TC     - TEMPERATURE IN CELSIUS WHICH IS ALSO KNOWN AS
         TEMPERATURE IN CENTIGRADE
AFB    - AIR FORCE BASE
         LUKE AFB IS LUKE AIR FORCE BASE
         DAVIS-MONTHAN IS DAVIS-MONTHAN AIR FORCE BASE
NAS    - NAVAL AIR STATION
         EL CENTRO NAS IS EL CENTRO NAVAL AIR STATION
N/A    - NOT AVAILABLE





USA.gov is the U.S. government's official web portal to all federal, state and local government web resources and services.